Flag for Brazil Weather past 2 weeks in Campo Grande, Mato Grosso Do Sul, Brazil

Now
72 °F

Clear.


Feels Like: 77 °F
Forecast: 67 / 89 °F
Wind: 5 mph from Northeast

Location: Campo Grande Aeroporto

Current Time: Aug 3, 2015 at 9:38:24 PM

Latest Report: Aug 3, 2015 at 9:00 PM


Visibility: 10 mi

Pressure: 30.07 "Hg (28.33 "Hg at 516m altitude)

Humidity: 50%

Dew point: 52 °F

Location of Campo GrandeLocation

Historic Weather in Campo Grande — Graph

°F

Campo Grande temperature yesterday

Maximum temperature yesterday: 88 °F (at 1:00 PM)
Minimum temperature yesterday: 66 °F (at 6:00 AM)
Average temperature yesterday: 76 °F

Past Weeks' High & Low Weather Summary

 TemperatureHumidityPressure
High88 °F (Jul 29, 3:00 PM)94% (Jul 21, 12:00 AM)30.21 "Hg (Jul 21, 12:00 AM)
Low52 °F (Jul 22, 1:00 AM)21% (Aug 1, 12:00 AM)29.92 "Hg (Aug 2, 3:00 PM)
Average71 °F61%30.07 "Hg
* Reported Jul 19 8:00 PM — Aug 3 8:00 PM, Campo Grande, Weather by CustomWeather, © 2015

Note: Actual official high and low records may vary slightly from our data, if they occured in-between our weather recording intervals... More about our weather records

Advertising

Campo Grande weather history for previous 24 hours

 ConditionsComfort  
Time TempWeatherWind HumidityBarometerVisibility
8:00 PM
Mon, Aug 3
72 °FPassing clouds.6 mph53%30.04 "HgN/A
7:00 PM75 °FClear.2 mph44%30.04 "Hg10 mi
6:00 PM79 °FClear.3 mph39%30.01 "Hg10 mi
5:00 PM82 °FClear.5 mph35%30.01 "Hg10 mi
4:00 PM86 °FSunny.5 mph31%30.01 "Hg10 mi
3:00 PM86 °FSunny.8 mph31%30.01 "Hg10 mi
2:00 PM86 °FPassing clouds.7 mph31%30.01 "HgN/A
1:00 PM86 °FPassing clouds.9 mph29%30.04 "HgN/A
12:00 PM86 °FPassing clouds.9 mph31%30.07 "HgN/A
11:00 AM84 °FPassing clouds.12 mph33%30.09 "HgN/A
10:00 AM84 °FPassing clouds.14 mph33%30.09 "HgN/A
9:00 AM81 °FSunny.10 mph37%30.09 "Hg10 mi
8:00 AM77 °FSunny.8 mph42%30.07 "Hg10 mi
7:00 AM68 °FSunny.6 mph60%30.04 "Hg10 mi
6:00 AM64 °FPassing clouds.9 mph64%30.01 "HgN/A
5:00 AM63 °FClear.6 mph64%30.01 "Hg10 mi
4:00 AM68 °FClear.7 mph53%29.98 "Hg10 mi
3:00 AM64 °FClear.7 mph60%29.98 "Hg10 mi
2:00 AM66 °FClear.8 mph56%29.98 "Hg10 mi
1:00 AM66 °FClear.7 mph56%29.98 "Hg10 mi
12:00 AM68 °FClear.9 mph53%29.98 "Hg10 mi
11:00 PM
Sun, Aug 2
70 °FClear.8 mph50%30.01 "Hg10 mi
10:00 PM70 °FPassing clouds.8 mph50%29.98 "HgN/A
9:00 PM68 °FClear.9 mph53%29.98 "Hg10 mi
Weather by CustomWeather, © 2015

See weather overviewHow to use our weather pages